Home > Weather > Bloemfontein > Past weeks

Flag for South Africa Weather for the Past 2 Weeks in Bloemfontein, South Africa

Now
72 °F

Mild.


Feels Like: 77 °F
Forecast: 66 / 92 °F
Wind: 3 mph from South

Location: Bloemfontein Airport

Current Time: Feb 7, 2016 at 1:45:30 AM

Latest Report: Feb 7, 2016 at 12:00 AM


Visibility: N/A

Pressure: 30.04 "Hg (25.55 "Hg at 1397m altitude)

Humidity: 41%

Dew point: 46 °F

Location of BloemfonteinLocation

Historic Weather in Bloemfontein — Graph

°F

Bloemfontein Temperature Yesterday

Maximum temperature yesterday: 90 °F (at 2:00 PM)
Minimum temperature yesterday: 63 °F (at 6:00 AM)
Average temperature yesterday: 76 °F

High & Low Weather Summary for the Past Weeks

 TemperatureHumidityPressure
High95 °F (Jan 30, 5:00 PM)94% (Jan 23, 4:00 AM)30.33 "Hg (Jan 23, 4:00 AM)
Low55 °F (Feb 5, 6:00 AM)12% (Jan 28, 5:00 PM)29.92 "Hg (Feb 3, 5:00 PM)
Average75 °F49%30.10 "Hg
* Reported Midnight between Jan 22 and Jan 23 — Midnight between Feb 6 and Feb 7, Bloemfontein, Weather by CustomWeather, © 2016

Note: Actual official high and low records may vary slightly from our data, if they occured in-between our weather recording intervals... More about our weather records

Advertising

Bloemfontein Weather History for the Previous 24 Hours

 ConditionsComfort  
Time TempWeatherWind HumidityBarometerVisibility
12:00 AM
Sun, Feb 7
72 °FMild.3 mph41%30.04 "HgN/A
11:47 PM
Sat, Feb 6
70 °FMild.7 mph46%30.04 "HgN/A
11:00 PM70 °FMild.No wind40%30.04 "HgN/A
10:00 PM72 °FMild.5 mph47%30.04 "HgN/A
9:00 PM73 °FMild.5 mph38%30.01 "HgN/A
8:00 PM84 °FClear.2 mph20%30.04 "Hg10 mi
7:00 PM88 °FClear.9 mph18%30.01 "Hg10 mi
6:00 PM90 °FPassing clouds.14 mph20%29.98 "HgN/A
5:00 PM90 °FPassing clouds.15 mph21%29.98 "HgN/A
4:00 PM90 °FPassing clouds.10 mph26%30.01 "HgN/A
3:00 PM90 °FPassing clouds.10 mph27%30.01 "HgN/A
2:00 PM90 °FPassing clouds.6 mph26%30.07 "HgN/A
1:00 PM86 °FScattered clouds.8 mph35%30.07 "HgN/A
12:00 PM84 °FPartly sunny.8 mph40%30.09 "HgN/A
11:00 AM82 °FScattered clouds.7 mph42%30.12 "HgN/A
10:00 AM77 °FPassing clouds.10 mph54%30.12 "HgN/A
9:00 AM73 °FPassing clouds.13 mph57%30.15 "HgN/A
8:00 AM68 °FSunny.10 mph60%30.18 "Hg10 mi
7:00 AM64 °FSunny.13 mph64%30.15 "Hg10 mi
6:00 AM63 °FSunny.12 mph68%30.12 "Hg10 mi
5:00 AM64 °FSunny.9 mph60%30.15 "Hg10 mi
3:46 AM64 °FMild.13 mph64%30.12 "HgN/A
3:00 AM66 °FMild.12 mph60%30.12 "HgN/A
2:00 AM66 °FMild.7 mph60%30.12 "HgN/A
1:00 AM68 °FMild.8 mph53%30.12 "HgN/A
Weather by CustomWeather, © 2016

See weather overviewHow to use our weather pages